Location: Baia Mare
(47.6567°N, 23.5850°E)
Time: 12:38:52
(UTC+02:00)

ISS - Pass Details

Date: 02 February 2018
Orbit: 403 x 407 km, 51.6° (Epoch: 22 February)

Event Time Altitude Azimuth Distance (km) Brightness Sun altitude
Rises 18:35:07 0° 268° (W) 2,316 1.9 -11.5°
Reaches altitude 10° 18:37:15 10° 275° (W) 1,458 0.3 -11.9°
Maximum altitude 18:40:24 45° 349° (N) 564 -3.1 -12.4°
Enters shadow 18:42:16 21° 54° (NE) 977 -2.4 -12.7°
